Location: Great Chart
(51.1333°N, 0.8333°E)
Time: 10:38:57
(UTC+00:00)

BREEZE-M DEB (TANK) - Pass Details

Date: 19 September 2020
Orbit: 306 x 13931 km, 46.1° (Epoch: 31 October)

Event Time Altitude Azimuth Distance (km) Brightness Sun altitude
Exits shadow 04:51:54 - 236° (WSW) 4,092 6.1 -8.1°
Reaches altitude 10° 04:53:43 10° 233° (SW) 3,264 5.7 -7.8°
Maximum altitude 04:59:16 30° 174° (S) 1,080 3.8 -7.0°
Drops below altitude 10° 05:01:50 10° 109° (ESE) 1,461 5.6 -6.6°
Sets 05:03:22 0° 95° (E) 2,117 7.2 -6.3°
